Starlink 5579

operational
NORAD ID: 55746 Int'l Des: 2023-028 Owner: SPXS Country: US Constellation: starlink
LEOCIRCULAR

关于 Starlink 5579

正在加载描述...

实时位置

正在加载3D地球...

即将过境

高度历史

Altitude vs Time

uPlot chart will show altitude changes over time

两行轨道根数

1 55746U 23028F 25353.46163632 -.00000112 00000-0 -16303-5 0 9995
2 55746 70.0001 86.7060 0003326 271.6360 88.4418 14.98328119154024
Epoch: Dec 19, 2025 • Age: 11 hours

当前状态

高度 577.2 km
速度 7.57 km/s
星下点 33.36°N, 33.73°E
发射日期 Mar 3, 2023
运行时间 2.7 years
类型 internet

技术详情

分类 Payload
质量 305.00 kg
干质量 290.00 kg
总质量 305.00 kg
长度 0.20 m
直径 2.80 m
跨度 9.00 m
形状 Box + pan
制造商 SPXS
平台类型 Starlink
阶段状态 In Orbit
所有者/国家 SPXS/US

大型星座

Loading constellations...